CARTOSAT-1 - Orbit

View from above orbital plane
View from above orbital plane
View from above satellite
View from above satellite

Ground track
Ground track

The orbit data is extracted from the following two-line orbital elements,

1 28649U 05017A   13145.14991752  .00000425  00000-0  58119-4 0   714
2 28649 097.8722 220.4578 0002464 110.1864 249.8939 14.83452678435960
Epoch (UTC): 25 May 2013 03:35:52
Eccentricity: 0.0002464
inclination: 97.8722°
perigee height: 617 km
apogee height: 620 km
right ascension of ascending node: 220.4578°
argument of perigee: 110.1864°
revolutions per day: 14.83452678
mean anomaly at epoch: 249.8939°
orbit number at epoch: 43596

The dashed part of the orbit path shows where the satellite is in the earth's shadow,  

Developed and maintained by Chris Peat, Heavens-Above GmbH. Please read the updated FAQ before sending e-mail. Imprint. DLR